Location: El Álamo
(40.2307°N, 3.9945°W)
Time: 04:12:37
(UTC+00:00)

USA 229 DEB - Pass Details

Date: 19 May 2025
Orbit: 872 x 1339 km, 63.4° (Epoch: 20 June)

Event Time Altitude Azimuth Distance (km) Brightness Sun altitude
Exits shadow 23:20:43 57° 86° (E) 1,107 3.6 -28.6°
Drops below altitude 10° 23:26:23 10° 40° (NE) 2,809 6.3 -28.8°
Sets 23:29:10 0° 37° (NE) 3,834 7.2 -28.9°
